Champaign, IL

2:24 PM CST on December 15, 2019 (GMT -0600)
Univ Of Illinois-Willard

Weather History for KCMI - May, 2019

Change the Weather History Date:

Saturday, May 11, 2019

  Actual Average Record
Temperature  
Mean Temperature 47 °F 61 °F  
Max Temperature 53 °F 73 °F 90 °F (2011)
Min Temperature 40 °F 49 °F 39 °F (2013)
Degree Days  
Heating Degree Days 18 5  
Month to date heating degree days 76 73  
Since 1 July heating degree days 5839 5737  
Cooling Degree Days 0 2  
Month to date cooling degree days 4 14  
Year to date cooling degree days 7 25  
Moisture  
Dew Point 45 °F    
Average Humidity 80    
Maximum Humidity 96    
Minimum Humidity 63    
Precipitation  
Precipitation 0.22 in 0.15 in 0.64 in (2008)
Month to date precipitation 2.06 1.73  
Year to date precipitation 14.20 12.34  
Sea Level Pressure  
Sea Level Pressure 29.99 in    
Wind  
Wind Speed 11 mph (NE)    
Max Wind Speed 21 mph    
Max Gust Speed 27 mph    
Visibility 9 miles    
Events Rain    
T = Trace of Precipitation, MM = Missing Value Source: NWS Daily Summary

Daily Weather History Graph

Daily Weather History Graph

Search for Another Location

Airport or City:

Astronomy

May. 11, 2019 Rise Set
Actual Time 5:41 AM CDT 7:57 PM CDT
Civil Twilight 5:11 AM CDT 8:28 PM CDT
Nautical Twilight 4:34 AM CDT 9:05 PM CDT
Astronomical Twilight 3:53 AM CDT 9:46 PM CDT
Moon 11:50 AM CDT (5/11) 1:38 AM CDT (5/11)
Length of Visible Light 15h 16m
Length of Day
14h 15m
Waxing Crescent, 46% of the Moon is Illuminated
May 11
Waxing Crescent
May 11
First Quarter
May 18
Full
May 26
Last Quarter
Jun 3
New

Hourly Weather History & Observations

Time (CDT) Temp. Windchill Dew Point Humidity Pressure Visibility Wind Dir Wind Speed Gust Speed Precip Events Conditions
12:53 AM 46.9 °F - 42.1 °F 83% 30.14 in 10.0 mi ENE 9.2 mph - N/A   Clear
1:53 AM 44.1 °F 39.5 °F 41.0 °F 89% 30.14 in 10.0 mi ENE 8.1 mph - N/A   Clear
2:53 AM 44.1 °F 40.1 °F 39.9 °F 85% 30.14 in 10.0 mi ENE 6.9 mph - N/A   Clear
3:53 AM 41.0 °F 36.4 °F 39.0 °F 93% 30.12 in 10.0 mi ENE 6.9 mph - N/A   Clear
4:53 AM 42.1 °F 39.2 °F 39.0 °F 89% 30.11 in 10.0 mi ENE 4.6 mph - N/A   Clear
5:53 AM 42.1 °F 37.7 °F 37.9 °F 85% 30.10 in 10.0 mi ENE 6.9 mph - N/A   Clear
6:53 AM 46.0 °F 41.4 °F 37.9 °F 73% 30.09 in 10.0 mi NE 9.2 mph - N/A   Clear
7:53 AM 48.0 °F - 37.9 °F 68% 30.10 in 10.0 mi ENE 12.7 mph - N/A   Clear
8:53 AM 50.0 °F - 39.0 °F 66% 30.08 in 10.0 mi ENE 13.8 mph - N/A   Clear
9:53 AM 52.0 °F - 39.9 °F 63% 30.06 in 10.0 mi ENE 16.1 mph - N/A   Clear
10:53 AM 52.0 °F - 39.9 °F 63% 30.06 in 10.0 mi ENE 13.8 mph 20.7 mph N/A   Partly Cloudy
11:53 AM 52.0 °F - 41.0 °F 66% 30.07 in 10.0 mi ENE 8.1 mph - N/A   Overcast
12:53 PM 51.1 °F - 46.0 °F 83% 30.01 in 8.0 mi ENE 10.4 mph - 0.05 in Rain Light Rain
1:53 PM 52.0 °F - 46.9 °F 83% 29.97 in 10.0 mi ENE 16.1 mph - 0.03 in Rain Light Rain
2:53 PM 52.0 °F - 48.9 °F 89% 29.97 in 7.0 mi NNE 9.2 mph - 0.02 in Rain Light Rain
3:48 PM 51.8 °F - 48.2 °F 88% 29.96 in 5.0 mi NNE 8.1 mph - 0.02 in Rain Light Rain
3:53 PM 51.1 °F - 48.9 °F 92% 29.96 in 4.0 mi NNE 9.2 mph - 0.03 in Rain Light Rain
4:02 PM 51.1 °F - 48.9 °F 92% 29.95 in 4.0 mi NE 8.1 mph - 0.00 in Rain Light Rain
4:53 PM 51.1 °F - 48.9 °F 92% 29.95 in 4.0 mi NE 10.4 mph - 0.05 in Rain Light Rain
5:36 PM 51.1 °F - 50.0 °F 96% 29.92 in 6.0 mi NE 10.4 mph - 0.03 in Rain Light Rain
5:53 PM 51.1 °F - 50.0 °F 96% 29.92 in 6.0 mi NE 10.4 mph - 0.03 in Rain Light Rain
6:06 PM 51.1 °F - 48.9 °F 92% 29.90 in 8.0 mi NE 13.8 mph - 0.01 in Rain Light Rain
6:33 PM 51.1 °F - 48.9 °F 92% 29.90 in 10.0 mi NE 11.5 mph - 0.01 in   Mostly Cloudy
6:41 PM 51.1 °F - 48.9 °F 92% 29.89 in 10.0 mi NE 15.0 mph - 0.01 in   Overcast
6:53 PM 51.1 °F - 48.9 °F 92% 29.90 in 10.0 mi NE 10.4 mph - 0.01 in   Mostly Cloudy
7:15 PM 50.0 °F - 48.0 °F 93% 29.89 in 10.0 mi NE 12.7 mph - N/A   Overcast
7:53 PM 48.9 °F - 46.9 °F 93% 29.89 in 10.0 mi NNE 12.7 mph - N/A   Overcast
8:53 PM 48.0 °F - 46.0 °F 93% 29.89 in 10.0 mi NNE 15.0 mph - N/A   Overcast
9:53 PM 46.9 °F - 45.0 °F 93% 29.89 in 10.0 mi NNE 16.1 mph 24.2 mph N/A   Overcast
10:53 PM 46.9 °F - 45.0 °F 93% 29.88 in 10.0 mi NE 12.7 mph 23.0 mph N/A   Overcast
11:53 PM 46.9 °F - 45.0 °F 93% 29.86 in 10.0 mi NE 15.0 mph 21.9 mph N/A   Overcast